Temp
60 60 60 60 60 59 59 60 60 60 60 60 60 60 60 60 61 74 69 70 71 69 70 80 82 81 82 82 86 85 72 71 75 75 75 83 84 94 95 92 93 95 95 96 100
59 59 59 59 59 59 59 59 59 60 60 60 60 60 60 59 67 68 68 69 69 70 76 75 77 80 76 77 79 76 72 75 83 83 76 81 86 89 87 89 89 91 95 97 98
59 59 59 59 59 59 59 59 59 59 60 59 59 59 59 62 66 69 70 69 69 72 79 77 77 79 73 79 77 76 71 81 83 84 82 80 85 91 86 84 91 90 92 94 95
58 59 59 58 58 58 59 59 59 59 60 59 59 59 59 67 60 73 70 69 68 75 77 73 73 71 71 71 78 71 78 79 81 83 77 76 84 84 87 88 95 93 93 93 92
58 58 58 58 58 58 58 59 59 59 59 59 59 59 65 66 67 77 69 74 76 76 72 71 69 71 69 74 76 73 76 80 82 81 79 79 77 81 85 91 95 95 93 91 92
57 57 57 57 58 58 58 58 58 58 58 59 60 58 65 62 77 77 76 76 75 75 73 73 71 74 70 71 72 77 76 77 79 79 79 76 78 81 85 91 90 89 89 92 93
57 57 57 57 57 57 58 57 57 57 59 60 60 65 63 66 77 80 78 75 75 73 70 74 76 70 71 66 75 73 68 73 76 78 75 77 70 74 84 88 87 87 88 90 92
57 57 57 57 57 57 57 57 56 58 59 60 61 66 64 77 80 77 79 77 76 75 72 75 75 72 70 73 69 65 67 61 73 75 77 72 62 79 86 85 84 85 88 89 91
57 56 56 56 56 57 57 56 57 60 61 61 64 65 65 72 74 78 79 71 74 76 73 73 71 67 69 62 60 64 57 63 66 77 75 70 65 76 84 85 84 86 88 89 91
57 56 55 56 56 56 55 56 60 61 66 68 68 61 70 66 73 75 79 74 68 70 67 66 66 61 63 61 50 57 60 62 63 73 74 70 68 75 82 82 83 86 87 88 90
56 56 55 55 56 55 60 70 67 65 69 62 62 61 66 73 76 72 76 71 69 65 58 66 58 55 60 62 63 62 61 61 66 72 70 69 68 72 79 79 80 82 84 85 87
56 55 55 55 55 55 64 66 62 63 55 67 64 64 68 70 61 69 73 63 62 56 62 59 53 61 63 61 58 59 56 57 64 66 68 67 66 73 76 78 80 80 81 83 85
55 55 55 55 55 61 68 65 71 69 57 59 64 63 65 69 61 63 70 65 59 55 57 53 58 63 58 57 54 55 53 55 57 64 66 64 61 66 74 77 79 80 81 82 82
54 55 54 55 56 69 67 69 71 68 52 53 59 63 66 68 59 70 71 64 59 54 56 56 62 58 57 54 57 50 60 59 57 55 50 64 49 63 69 71 75 78 79 81 83
54 55 54 53 63 68 66 71 70 64 38 55 58 71 68 60 61 63 71 65 55 55 57 53 56 55 53 55 59 53 61 58 58 55 54 56 53 61 69 67 72 76 79 81 83
54 54 54 58 65 68 70 68 65 48 33 50 57 57 57 60 60 63 63 68 65 56 57 56 63 59 57 60 60 61 56 55 55 52 43 54 54 57 63 68 73 78 81 82 84
54 53 57 68 66 71 71 65 48 40 53 48 50 56 55 54 55 56 55 54 51 41 46 53 54 60 61 54 59 57 49 38 36 39 39 56 53 57 68 73 74 75 79 82 84
53 51 55 69 72 68 67 56 36 46 47 54 53 54 50 53 53 53 52 51 55 50 44 38 37 48 57 55 50 52 48 40 31 37 44 55 47 58 71 75 77 79 80 81 82
51 68 69 69 70 69 61 46 46 46 50 48 51 47 49 52 51 52 51 49 52 52 39 39 38 53 56 56 57 50 42 55 45 48 45 54 57 65 71 72 74 76 77 79 80
61 66 67 68 68 65 56 43 48 52 52 51 40 46 43 48 47 49 48 52 50 54 55 46 35 52 49 50 57 52 56 34 46 32 35 49 53 55 64 66 73 73 74 76 78
62 60 65 68 67 62 45 49 50 55 54 48 46 43 45 44 47 46 46 53 54 54 57 52 44 45 54 48 46 48 44 45 46 47 39 44 52 68 67 70 70 72 74 76 77
59 57 67 67 55 55 50 50 48 51 54 51 51 49 47 47 43 45 44 48 57 56 48 53 45 40 46 56 57 46 42 39 34 40 49 45 52 70 68 70 69 71 75 78 78
50 57 68 63 43 47 53 50 51 49 50 48 46 49 50 43 38 46 47 54 56 53 48 50 44 37 44 49 52 48 52 48 47 44 40 45 53 69 71 70 71 70 73 77 79
52 50 60 60 56 48 46 47 46 53 51 51 48 52 47 44 48 39 45 51 53 52 52 48 44 41 36 43 50 45 48 52 50 42 44 49 53 63 66 67 69 69 71 76 78
53 50 50 48 50 48 48 47 44 44 50 52 47 46 43 35 42 43 47 47 47 49 49 45 38 44 48 50 50 48 48 49 48 50 45 49 52 61 65 67 68 68 71 74 77
47 43 49 50 48 46 45 46 44 47 47 46 43 46 47 40 41 36 43 42 36 44 43 42 36 43 41 47 48 46 50 50 51 51 52 52 52 64 66 68 67 69 71 73 75
50 46 41 45 46 42 42 44 44 46 48 51 47 45 43 47 50 54 51 50 45 37 38 36 36 37 35 46 45 40 49 52 53 55 54 49 57 64 63 64 66 68 70 72 75
MSLP
1022.41 1022.05 1021.70 1021.33 1020.97 1020.60 1020.23 1019.89 1019.51 1019.11 1018.63 1018.12 1017.75 1017.30 1016.89 1016.53 1015.82 1014.26 1013.74 1014.16 1014.02 1013.81 1013.21 1011.75 1011.19 1010.60 1010.30 1009.18 1008.47 1008.19 1006.41 1003.93 1002.95 1002.84 1003.07 1003.30 1002.65 1001.69 1001.41 1000.79 1001.06 1000.82 1000.44 1001.11 1001.57
1022.41 1022.04 1021.65 1021.22 1020.80 1020.43 1020.08 1019.73 1019.37 1018.96 1018.48 1018.03 1017.65 1017.44 1017.06 1016.67 1015.40 1013.70 1014.49 1014.25 1013.96 1013.60 1012.37 1011.43 1010.36 1010.05 1009.35 1008.77 1007.99 1007.12 1005.03 1003.14 1002.77 1002.67 1003.49 1003.31 1002.65 1001.71 1001.64 1001.06 1000.88 1001.15 1001.79 1001.84 1001.85
1022.42 1022.01 1021.58 1021.19 1020.72 1020.20 1019.76 1019.35 1018.93 1018.46 1018.07 1017.78 1017.54 1017.19 1016.78 1016.35 1014.28 1013.14 1013.95 1013.77 1013.78 1013.34 1012.13 1011.60 1010.66 1009.65 1008.75 1007.71 1007.11 1006.14 1003.86 1003.21 1002.85 1003.21 1003.95 1003.53 1002.48 1001.95 1001.79 1000.74 1000.30 1000.77 1001.40 1001.92 1002.21
1022.45 1021.97 1021.52 1021.07 1020.61 1020.14 1019.70 1019.24 1018.80 1018.31 1017.79 1017.34 1017.12 1016.85 1016.53 1015.44 1013.27 1013.40 1014.15 1014.20 1013.84 1013.00 1011.69 1011.08 1010.67 1009.46 1008.22 1006.87 1006.63 1005.69 1004.24 1004.08 1003.25 1003.60 1004.47 1003.97 1003.21 1001.94 1001.55 1001.13 1000.77 1001.38 1001.82 1002.16 1002.26
1022.35 1021.87 1021.41 1020.95 1020.45 1019.94 1019.47 1019.03 1018.65 1018.20 1017.68 1017.15 1016.97 1016.77 1015.90 1013.75 1012.86 1013.22 1013.82 1013.27 1012.76 1012.13 1011.58 1011.00 1010.28 1009.24 1007.41 1006.52 1006.20 1004.71 1004.22 1003.91 1003.80 1004.08 1004.08 1004.23 1003.20 1002.13 1001.12 1001.10 1001.18 1001.36 1001.85 1002.19 1002.19
1022.16 1021.69 1021.21 1020.70 1020.15 1019.57 1019.02 1018.60 1018.44 1018.05 1017.57 1017.05 1016.87 1016.78 1015.17 1012.95 1013.17 1013.21 1013.16 1012.82 1012.28 1011.81 1011.24 1010.96 1010.03 1009.24 1008.11 1006.84 1005.66 1004.81 1004.49 1004.06 1003.78 1003.59 1003.94 1003.80 1002.64 1002.75 1000.56 1001.13 1000.77 1001.30 1001.41 1001.35 1001.45
1022.00 1021.54 1021.06 1020.56 1020.00 1019.37 1018.73 1018.24 1017.92 1017.66 1017.25 1016.86 1016.86 1016.32 1014.71 1013.15 1013.10 1012.86 1012.52 1012.42 1012.34 1012.07 1011.22 1010.81 1010.25 1009.66 1008.13 1007.51 1006.71 1005.88 1004.95 1004.17 1003.05 1003.08 1003.07 1003.75 1002.45 1001.05 1000.73 1000.82 1000.44 1000.51 1000.58 1000.73 1000.75
1021.75 1021.27 1020.78 1020.27 1019.72 1019.02 1018.28 1017.89 1017.47 1017.05 1016.76 1016.73 1016.80 1015.84 1013.30 1012.93 1012.88 1012.36 1011.97 1011.59 1011.73 1011.88 1011.69 1011.03 1010.59 1009.58 1008.59 1007.86 1006.97 1006.21 1005.18 1003.21 1001.26 1002.67 1002.56 1003.78 1001.04 998.85 1000.14 999.82 1000.03 999.88 999.88 999.84 999.80
1021.74 1021.20 1020.64 1020.01 1019.45 1018.75 1017.89 1017.35 1016.92 1016.57 1016.58 1016.67 1016.16 1015.04 1012.14 1012.63 1012.07 1011.95 1011.66 1011.52 1011.21 1010.93 1011.28 1011.15 1010.49 1009.13 1008.22 1007.69 1006.64 1005.08 1002.82 1001.58 1001.00 1001.20 1002.00 1002.79 1000.28 999.30 999.79 998.90 998.78 998.95 998.90 999.01 998.93
1021.68 1021.17 1020.60 1019.92 1019.33 1018.70 1017.85 1016.86 1016.57 1016.41 1016.12 1015.78 1015.25 1014.46 1012.37 1012.14 1012.05 1011.86 1011.45 1011.48 1011.21 1010.69 1010.52 1010.38 1009.52 1008.41 1007.61 1006.77 1004.10 1003.26 1002.44 1001.88 1000.82 1000.62 1000.88 1000.97 999.25 999.74 999.13 998.35 998.12 998.17 998.26 998.27 998.25
1021.50 1020.96 1020.33 1019.66 1019.02 1018.46 1017.30 1016.22 1015.84 1015.07 1014.30 1014.11 1013.86 1013.54 1012.58 1012.30 1012.16 1011.47 1011.11 1011.03 1010.74 1010.42 1009.48 1008.56 1008.38 1006.95 1006.48 1006.05 1005.21 1004.53 1003.00 1001.33 1000.94 1001.06 1000.81 999.79 998.96 998.95 999.16 998.71 998.05 998.02 997.97 997.94 997.83
1021.18 1020.67 1020.12 1019.47 1018.76 1018.04 1017.12 1015.58 1016.33 1016.56 1014.69 1013.66 1013.73 1013.46 1013.12 1013.00 1012.12 1010.97 1011.37 1010.82 1010.40 1009.60 1009.04 1008.35 1007.22 1007.00 1006.75 1006.61 1006.06 1004.94 1004.03 1002.59 1002.26 1002.24 1000.92 1000.04 998.55 998.66 998.58 997.66 997.61 997.62 997.75 997.60 997.62
1020.82 1020.25 1019.68 1019.11 1018.52 1017.65 1016.37 1016.14 1016.34 1016.22 1014.58 1013.30 1012.97 1012.75 1012.41 1012.37 1011.47 1011.01 1010.86 1010.48 1010.05 1009.42 1008.59 1007.77 1006.86 1006.62 1006.96 1006.67 1006.25 1005.52 1004.54 1003.60 1002.79 1002.41 1001.68 1000.88 999.01 998.19 997.68 997.51 997.32 997.24 997.59 997.61 997.37
1020.40 1019.73 1019.16 1018.65 1018.44 1016.88 1016.13 1016.49 1016.42 1016.38 1014.07 1012.83 1012.29 1012.18 1012.07 1011.62 1010.81 1010.89 1010.44 1010.45 1009.83 1009.06 1008.66 1007.62 1006.94 1006.75 1006.52 1006.21 1006.08 1004.92 1004.89 1004.41 1003.62 1003.05 1000.91 1001.03 998.19 997.57 997.08 996.55 996.45 996.32 996.57 996.59 996.59
1019.94 1019.18 1018.66 1018.67 1017.47 1016.24 1016.67 1016.59 1016.48 1016.37 1013.42 1012.84 1012.19 1012.31 1011.86 1011.58 1011.37 1010.25 1010.32 1009.89 1009.31 1008.83 1008.65 1007.12 1006.70 1006.51 1006.05 1005.62 1005.47 1004.75 1004.72 1004.21 1003.64 1002.65 1001.97 1000.49 999.10 996.52 996.52 995.42 995.16 995.23 995.48 995.58 995.62
1019.47 1018.67 1018.20 1018.08 1017.42 1016.66 1016.68 1016.67 1016.45 1014.74 1012.68 1012.38 1012.26 1011.76 1011.25 1010.76 1010.56 1010.22 1009.91 1009.54 1009.01 1008.65 1008.17 1007.21 1007.00 1006.45 1005.77 1005.56 1005.44 1005.30 1005.04 1004.53 1003.99 1003.29 1000.64 999.40 998.67 996.24 995.74 994.68 994.51 994.34 994.31 994.54 994.56
1019.09 1018.50 1018.03 1017.09 1016.28 1016.74 1016.48 1015.86 1014.61 1013.16 1013.08 1012.46 1012.27 1011.82 1011.27 1010.51 1010.33 1010.04 1009.63 1008.86 1008.56 1008.69 1007.46 1007.17 1006.15 1005.14 1005.41 1005.48 1005.35 1005.30 1005.05 1004.39 1003.34 1002.05 1000.31 999.65 998.27 996.36 995.02 994.23 994.15 994.33 994.23 993.91 993.96
1018.77 1018.45 1017.82 1017.00 1016.65 1016.61 1015.89 1014.70 1013.80 1013.10 1012.91 1013.17 1012.71 1012.09 1011.12 1011.12 1010.57 1010.26 1009.59 1008.64 1008.65 1009.37 1008.77 1008.08 1006.78 1007.11 1005.93 1005.36 1004.94 1004.89 1004.91 1003.81 1002.18 1000.69 999.45 999.19 996.84 995.35 995.57 994.99 994.33 994.25 994.28 994.03 993.70
1018.32 1017.11 1016.59 1016.60 1016.68 1016.29 1015.05 1013.56 1013.06 1013.64 1013.86 1013.56 1013.00 1011.90 1011.09 1010.96 1010.92 1010.13 1009.53 1009.21 1009.11 1009.58 1009.76 1008.69 1007.79 1007.30 1006.57 1006.27 1005.50 1004.99 1005.16 1004.33 1002.88 1001.29 999.10 996.51 996.52 996.26 994.96 994.67 994.36 993.96 994.01 993.73 993.65
1018.07 1016.60 1016.11 1016.59 1016.55 1015.81 1014.44 1013.98 1013.80 1014.33 1014.43 1014.03 1013.38 1012.88 1011.90 1011.44 1011.09 1010.19 1009.91 1009.59 1009.44 1009.52 1009.75 1009.30 1008.40 1006.86 1007.14 1006.92 1005.25 1005.05 1005.24 1005.85 1003.25 1001.70 998.50 996.00 994.58 994.08 993.12 994.28 994.05 994.06 994.39 994.13 993.88
1017.83 1016.01 1016.36 1016.50 1016.29 1014.96 1014.51 1014.04 1014.48 1014.57 1014.79 1014.28 1013.54 1013.18 1012.90 1012.13 1011.68 1010.79 1010.33 1009.84 1009.67 1009.66 1009.48 1008.90 1008.66 1007.05 1006.07 1005.65 1005.10 1005.67 1005.96 1005.82 1004.28 1001.63 998.57 995.46 993.63 993.13 992.87 993.34 994.37 994.79 994.66 994.31 994.08
1018.03 1015.65 1016.30 1016.31 1015.32 1015.48 1014.72 1015.16 1015.64 1014.62 1014.55 1014.33 1013.97 1013.44 1013.01 1012.66 1012.15 1011.24 1010.62 1010.37 1010.04 1009.99 1009.26 1008.94 1008.89 1007.02 1005.44 1004.82 1005.06 1006.11 1006.51 1006.16 1004.39 1002.29 999.49 997.69 994.05 993.53 994.06 994.95 995.49 995.26 994.66 994.54 994.40
1018.81 1016.93 1016.26 1016.17 1015.47 1015.33 1015.10 1015.22 1015.29 1014.84 1014.44 1014.44 1014.18 1013.83 1013.74 1013.39 1012.77 1011.28 1010.83 1010.65 1010.55 1010.32 1009.62 1009.59 1008.37 1006.80 1004.62 1004.55 1004.55 1004.73 1004.54 1004.86 1004.23 1003.56 1000.72 997.46 994.45 994.91 994.62 994.75 995.28 995.50 995.32 994.78 994.50
1019.25 1016.94 1015.95 1016.27 1016.71 1016.33 1015.69 1015.06 1014.87 1014.87 1014.62 1014.53 1014.37 1013.94 1013.49 1013.19 1012.71 1011.97 1011.01 1010.68 1010.85 1010.67 1010.62 1010.75 1009.32 1007.77 1006.04 1004.25 1004.01 1004.23 1004.20 1003.86 1003.16 1002.03 1000.15 997.81 995.57 994.90 994.75 994.70 995.08 995.87 995.93 995.30 994.78
1019.72 1018.57 1018.67 1016.81 1016.76 1016.97 1016.52 1015.93 1015.35 1014.70 1014.80 1014.58 1014.08 1013.88 1013.85 1013.28 1012.32 1011.27 1010.40 1010.44 1011.13 1011.24 1010.91 1010.70 1009.33 1007.92 1006.46 1005.46 1004.75 1004.27 1003.85 1003.37 1002.63 1001.66 1000.35 999.06 996.95 996.00 995.68 995.83 995.92 996.30 996.20 995.50 995.01
1020.40 1020.63 1019.61 1018.45 1018.07 1017.37 1016.62 1015.76 1015.65 1015.19 1015.25 1014.39 1014.14 1013.66 1013.57 1012.98 1012.58 1011.08 1010.73 1010.52 1010.86 1010.74 1010.81 1010.90 1009.76 1008.48 1006.73 1005.75 1004.78 1003.49 1002.80 1002.44 1002.00 1001.30 1000.40 999.38 997.66 997.67 997.15 997.03 996.66 996.15 995.67 995.19 995.08
1021.69 1021.98 1021.54 1019.43 1018.09 1017.90 1017.29 1016.87 1016.64 1016.25 1015.18 1014.43 1014.19 1013.62 1012.95 1012.23 1011.41 1010.29 1010.05 1009.81 1010.18 1010.71 1011.16 1011.17 1010.27 1008.86 1006.50 1005.25 1004.25 1002.68 1001.48 1000.98 1000.62 1000.15 999.87 998.56 997.44 997.55 996.76 996.67 996.38 995.95 995.73 995.07 994.91
Wind_Speed
13 14 14 14 14 14 15 15 14 14 14 15 15 17 18 19 21 12 8 8 8 14 14 11 11 7 10 16 15 14 12 17 23 19 13 5 14 15 6 9 6 3 4 8 8
15 15 15 16 16 16 16 15 15 14 13 14 14 15 16 17 16 2 6 4 9 11 7 8 13 12 13 17 11 16 18 26 21 14 11 16 16 11 7 17 12 7 8 8 10
16 16 16 17 17 17 17 16 16 15 15 14 13 14 15 16 7 5 11 12 10 14 9 8 9 14 19 16 23 21 27 21 22 14 12 17 19 14 14 18 17 14 8 2 1
16 17 17 18 18 17 17 16 16 16 16 16 14 13 13 8 3 4 0 8 12 10 6 3 8 18 19 26 21 27 26 26 24 14 11 19 20 23 21 20 18 6 6 11 12
17 18 18 18 18 18 17 16 15 15 15 15 11 10 10 5 5 5 6 7 4 5 4 8 10 13 24 16 25 28 29 23 23 22 18 16 23 24 25 22 22 20 17 17 17
18 18 19 19 19 20 19 18 14 14 13 14 9 8 6 4 5 3 9 11 6 8 5 8 9 9 16 21 24 16 25 29 28 22 19 25 27 21 27 23 23 20 22 22 19
18 19 19 19 20 20 19 18 17 15 11 9 7 6 5 8 6 10 10 8 6 7 9 6 12 12 4 16 20 23 26 24 25 27 28 16 27 36 29 25 22 21 21 22 21
19 19 20 20 21 21 22 19 19 15 8 7 8 5 4 2 7 8 9 9 3 9 9 9 9 15 19 15 16 17 22 25 32 25 23 23 29 38 28 29 25 26 23 23 23
20 19 21 22 21 22 23 23 20 4 7 9 9 6 2 4 9 9 8 10 12 9 6 8 8 14 14 18 18 21 25 30 29 27 24 20 35 37 32 28 25 24 24 22 23
20 20 20 20 20 20 23 20 7 11 7 6 4 7 3 8 14 15 8 7 9 8 10 11 9 12 13 16 23 22 26 27 28 21 25 29 36 29 26 13 24 27 26 24 23
21 20 20 20 20 18 15 6 6 8 5 8 6 6 7 12 14 9 6 9 6 9 13 13 13 14 15 18 25 25 28 22 18 21 26 26 35 31 28 29 27 23 20 20 20
22 21 20 20 20 20 9 4 5 6 9 8 7 9 8 5 13 11 3 8 11 13 13 12 17 17 15 14 20 22 26 31 19 15 21 25 32 28 27 29 28 27 27 25 24
21 22 21 19 18 9 4 5 2 7 8 2 2 5 3 10 9 10 12 11 13 14 13 16 16 10 10 14 19 23 25 25 27 20 18 21 27 27 22 24 23 24 23 24 25
22 22 19 16 10 2 2 3 6 6 7 6 5 3 5 12 9 11 7 9 11 16 15 16 11 13 16 19 18 21 22 26 24 23 24 21 20 24 25 29 29 27 25 25 25
23 23 15 7 5 1 5 5 5 6 6 3 3 3 9 6 9 5 6 10 16 17 16 20 19 16 18 20 19 19 19 24 22 23 26 29 21 17 18 21 19 17 20 23 24
25 22 5 5 3 3 5 3 6 8 1 2 2 9 11 9 8 5 9 11 12 15 16 21 18 18 21 19 17 13 17 20 19 14 19 23 23 19 20 26 22 18 19 21 21
26 15 5 1 4 1 3 5 7 7 3 2 7 11 16 9 13 8 14 11 9 9 12 18 14 15 15 19 20 16 16 11 16 19 19 21 21 19 7 2 1 8 15 8 11
25 8 4 2 4 5 5 7 5 4 5 9 10 18 11 10 9 13 11 12 2 8 13 8 8 15 7 18 21 21 19 16 21 18 20 27 23 17 16 14 15 11 10 10 11
24 3 3 4 3 5 8 6 3 4 5 10 14 10 8 6 8 12 12 9 5 5 9 9 6 13 10 13 15 19 21 21 25 18 19 17 26 26 19 12 9 3 6 8 10
7 3 3 7 4 7 6 4 3 3 8 9 9 7 13 14 13 10 10 5 6 5 8 7 10 10 4 8 14 8 12 5 16 14 20 17 22 15 25 27 16 0 9 13 14
5 5 6 6 5 5 4 5 7 5 8 6 9 12 12 12 11 13 7 12 3 9 14 15 7 11 14 6 4 5 9 12 15 18 13 12 16 19 14 11 8 7 12 15 15
6 4 4 4 5 2 4 8 7 5 4 8 8 10 11 12 11 14 12 7 13 13 15 13 8 12 16 9 5 9 11 6 6 20 16 11 4 12 18 14 6 11 15 16 15
7 4 2 5 3 5 6 7 6 7 4 4 6 7 13 14 9 8 12 7 14 15 6 8 6 11 10 8 4 8 15 13 14 15 15 13 4 14 10 7 11 14 17 16 15
5 4 3 3 2 5 10 4 5 3 10 6 10 13 11 12 13 11 18 12 13 16 15 10 14 15 14 19 15 11 12 12 13 11 13 16 20 8 11 12 16 15 19 18 16
1 3 4 4 3 9 8 8 9 6 3 10 6 8 12 7 19 22 18 16 16 20 21 6 14 18 18 19 17 18 19 17 17 19 19 18 24 18 17 16 18 19 21 17 15
5 4 4 10 6 8 1 3 8 6 11 12 14 12 15 18 19 27 24 19 8 4 11 4 6 14 20 18 19 22 21 21 21 20 21 22 27 22 23 22 21 20 18 16 14
2 1 2 7 5 5 5 7 14 15 10 9 11 17 19 21 20 24 23 24 17 6 7 4 4 9 13 10 13 16 17 20 22 21 21 22 23 21 22 20 19 19 18 16 15
Wind_Direction
352 349 344 341 339 337 336 333 330 326 320 318 319 319 322 326 313 292 280 14 315 315 305 281 260 211 223 235 223 230 238 243 243 234 242 250 249 249 263 263 205 160 38 63 139
347 343 342 340 337 334 332 330 326 321 318 316 315 316 317 323 308 310 62 31 352 328 305 269 231 211 208 219 216 217 227 238 245 250 232 239 241 248 244 223 220 179 128 96 140
343 341 340 338 335 333 332 329 326 321 318 312 310 309 311 309 268 60 182 10 338 305 315 283 270 237 225 224 214 223 242 240 246 243 247 252 252 247 241 245 214 198 167 146 220
341 339 339 337 334 331 328 324 321 317 316 311 311 309 311 285 5 73 223 327 314 286 268 264 241 224 230 228 226 241 244 241 257 254 245 247 259 254 247 246 247 259 233 284 281
341 340 338 335 331 327 324 320 318 313 310 305 302 308 284 222 43 74 305 329 294 322 290 255 250 236 239 238 233 236 244 249 243 251 247 254 251 250 246 245 248 251 253 253 260
342 340 337 334 331 328 324 319 318 312 301 290 288 290 281 72 9 317 312 308 293 309 309 249 249 267 282 264 248 245 246 249 254 247 245 245 252 256 245 247 254 256 256 255 255
340 339 335 332 329 324 320 316 318 312 287 262 230 254 275 38 342 324 309 302 300 285 305 293 266 239 277 256 256 258 263 260 249 240 240 254 260 247 251 251 252 255 257 258 257
341 337 335 333 331 326 320 318 316 308 275 202 199 244 273 124 313 292 335 317 225 256 267 292 258 249 255 263 274 252 250 248 238 231 236 227 257 252 239 243 239 254 254 259 263
340 336 335 332 330 326 321 318 308 272 160 165 207 256 108 164 339 351 330 312 318 273 241 265 239 245 244 238 251 236 248 237 251 236 229 216 242 252 261 259 246 243 253 255 260
337 335 332 329 325 323 319 307 135 155 178 215 239 238 217 344 343 327 307 299 298 293 236 233 234 244 231 234 236 237 237 244 259 248 224 222 243 245 257 253 250 253 250 253 249
336 334 331 328 324 323 314 205 227 182 245 303 339 304 295 333 316 315 328 314 279 262 269 245 259 256 259 254 257 266 269 265 275 261 257 238 241 248 246 252 256 259 253 255 259
334 334 329 324 321 316 277 34 48 353 295 281 259 262 277 293 295 303 311 294 315 294 303 257 247 262 277 275 276 261 258 260 257 288 248 246 250 251 247 250 250 252 254 260 266
331 332 326 321 316 282 353 53 53 326 264 284 234 268 297 295 298 292 306 288 289 290 281 274 279 298 260 262 250 253 254 256 254 261 239 251 252 251 249 256 256 258 260 261 262
331 331 323 317 280 359 119 105 312 310 267 129 175 158 277 316 254 289 279 296 277 283 293 280 289 274 260 258 256 264 249 255 254 250 244 231 254 242 240 243 242 245 246 251 256
333 331 322 283 349 257 54 313 314 221 278 78 155 28 295 284 313 308 309 286 289 287 281 269 290 285 262 256 261 262 270 249 242 246 244 243 259 258 256 256 255 251 254 253 255
337 335 317 161 214 31 322 294 206 233 236 140 271 315 310 318 290 298 286 281 269 280 272 270 269 268 266 263 266 261 273 257 240 256 250 237 237 253 251 255 252 250 254 250 255
337 336 253 214 35 315 313 214 247 271 115 66 330 321 316 308 301 319 321 302 313 316 311 317 321 298 236 240 242 238 238 245 225 229 240 240 231 242 269 325 231 296 265 228 267
333 305 159 321 309 280 250 243 275 41 327 338 316 309 299 340 324 327 309 313 298 312 308 336 341 333 300 234 241 229 233 243 243 233 232 224 239 224 231 265 266 255 260 272 269
313 194 205 40 316 277 271 261 281 354 351 321 314 300 315 309 305 304 323 324 329 9 328 312 299 286 305 324 273 233 250 263 264 269 276 226 214 250 247 243 233 238 339 334 319
314 261 88 336 281 266 268 276 287 296 306 300 307 285 316 329 310 328 319 330 294 317 320 315 297 299 133 287 263 297 250 323 249 258 249 238 211 220 211 227 247 25 4 357 352
276 250 59 336 249 254 284 336 308 319 300 284 296 288 288 315 301 308 290 307 327 309 315 301 273 288 283 242 224 273 241 242 249 245 268 227 215 208 214 118 106 32 11 360 7
312 257 45 306 237 236 285 344 339 289 242 275 280 278 288 309 295 297 286 279 314 312 301 311 292 285 287 285 209 169 226 230 255 224 250 302 36 119 111 114 69 11 13 356 20
321 299 87 291 349 332 329 295 272 284 281 301 286 288 307 292 293 294 284 281 296 295 295 344 252 298 290 163 215 217 238 207 248 251 267 244 155 152 172 89 31 3 360 353 5
298 295 139 36 21 327 338 316 300 245 281 262 280 294 286 301 274 274 285 287 296 287 298 295 266 263 278 301 322 300 284 277 270 281 270 253 265 193 214 330 334 340 337 339 340
337 54 8 312 329 324 298 284 296 311 281 288 287 280 296 283 295 283 286 305 289 275 275 270 263 266 273 281 284 281 275 269 260 263 263 262 273 265 276 303 318 312 306 319 335
350 347 343 287 302 303 307 296 305 332 317 286 288 300 308 292 288 289 291 298 260 254 285 205 264 282 274 268 270 270 267 263 263 259 260 264 267 272 281 285 288 292 307 310 320
65 113 268 304 300 310 302 336 319 321 306 277 289 299 292 287 294 290 290 281 256 216 231 242 263 268 254 264 275 272 265 257 252 249 241 252 263 263 266 272 276 284 295 302 302